TimeEEST,TemperatureF,Dew PointF,Humidity,Sea Level PressureIn,VisibilityMPH,Wind Direction,Wind SpeedMPH,Gust SpeedMPH,PrecipitationIn,Events,Conditions,WindDirDegrees,DateUTC
12:20 AM,68.0,59.0,73,29.83,6.2,West,19.6,-,N/A,,Partly Cloudy,260,2013-06-02 21:20:00
1:20 AM,66.2,60.8,83,29.83,-9999.0,West,9.2,-,N/A,,Unknown,260,2013-06-02 22:20:00
1:50 AM,66.2,60.8,83,29.83,-9999.0,West,12.7,-,N/A,,Unknown,280,2013-06-02 22:50:00
2:20 AM,66.2,59.0,78,29.83,-9999.0,West,11.5,-,N/A,,Unknown,280,2013-06-02 23:20:00
2:50 AM,66.2,59.0,78,29.83,-9999.0,West,5.8,-,N/A,,Unknown,280,2013-06-02 23:50:00
3:20 AM,66.2,59.0,78,29.83,-9999.0,Variable,1.2,-,N/A,,Unknown,0,2013-06-03 00:20:00
3:50 AM,64.4,59.0,83,29.83,-9999.0,Calm,Calm,-,N/A,,Unknown,0,2013-06-03 00:50:00
4:20 AM,66.2,59.0,78,29.83,-9999.0,West,5.8,-,N/A,Rain,Light Rain,270,2013-06-03 01:20:00
4:50 AM,66.2,57.2,73,29.83,-9999.0,West,6.9,-,N/A,,Unknown,280,2013-06-03 01:50:00
5:20 AM,64.4,57.2,77,29.83,-9999.0,Variable,3.5,-,N/A,,Unknown,0,2013-06-03 02:20:00
5:50 AM,64.4,59.0,83,29.86,-9999.0,West,8.1,-,N/A,,Clear,280,2013-06-03 02:50:00
6:20 AM,64.4,59.0,83,29.86,-9999.0,NNE,5.8,-,N/A,,Clear,30,2013-06-03 03:20:00
6:50 AM,66.2,59.0,78,29.86,-9999.0,Calm,Calm,-,N/A,,Clear,0,2013-06-03 03:50:00
7:20 AM,68.0,59.0,73,29.86,-9999.0,West,11.5,-,N/A,,Clear,260,2013-06-03 04:20:00
7:50 AM,69.8,59.0,68,29.86,-9999.0,West,13.8,-,N/A,,Clear,280,2013-06-03 04:50:00
8:20 AM,69.8,59.0,68,29.89,-9999.0,West,13.8,-,N/A,,Clear,270,2013-06-03 05:20:00
8:50 AM,69.8,59.0,68,29.89,-9999.0,West,13.8,-,N/A,,Clear,270,2013-06-03 05:50:00
9:20 AM,71.6,57.2,60,29.89,-9999.0,West,13.8,-,N/A,,Clear,270,2013-06-03 06:20:00
9:50 AM,71.6,57.2,60,29.89,-9999.0,West,13.8,-,N/A,,Clear,260,2013-06-03 06:50:00
10:20 AM,73.4,57.2,57,29.89,-9999.0,West,13.8,-,N/A,,Clear,260,2013-06-03 07:20:00
10:50 AM,73.4,57.2,57,29.89,-9999.0,West,13.8,-,N/A,,Clear,260,2013-06-03 07:50:00
11:20 AM,73.4,55.4,53,29.89,-9999.0,West,13.8,-,N/A,,Clear,270,2013-06-03 08:20:00
11:50 AM,75.2,55.4,50,29.89,-9999.0,West,13.8,-,N/A,,Clear,260,2013-06-03 08:50:00
12:20 PM,75.2,55.4,50,29.89,6.2,West,13.8,-,N/A,,Partly Cloudy,270,2013-06-03 09:20:00
12:50 PM,75.2,57.2,53,29.89,6.2,West,13.8,-,N/A,,Partly Cloudy,260,2013-06-03 09:50:00
1:20 PM,75.2,55.4,50,29.92,6.2,West,13.8,-,N/A,,Partly Cloudy,270,2013-06-03 10:20:00
1:50 PM,75.2,55.4,50,29.89,6.2,West,11.5,-,N/A,,Partly Cloudy,270,2013-06-03 10:50:00
2:20 PM,75.2,51.8,44,29.89,6.2,WSW,13.8,-,N/A,,Partly Cloudy,250,2013-06-03 11:20:00
2:50 PM,75.2,50.0,41,29.89,6.2,WSW,13.8,-,N/A,,Partly Cloudy,250,2013-06-03 11:50:00
3:20 PM,75.2,50.0,41,29.92,6.2,WSW,13.8,-,N/A,,Partly Cloudy,250,2013-06-03 12:20:00
3:50 PM,77.0,50.0,39,29.92,6.2,WSW,11.5,-,N/A,,Partly Cloudy,240,2013-06-03 12:50:00
4:20 PM,75.2,50.0,41,29.89,6.2,West,11.5,-,N/A,,Partly Cloudy,270,2013-06-03 13:20:00
4:50 PM,75.2,50.0,41,29.89,6.2,West,11.5,-,N/A,,Partly Cloudy,260,2013-06-03 13:50:00
5:20 PM,73.4,55.4,53,29.89,6.2,West,16.1,-,N/A,,Partly Cloudy,260,2013-06-03 14:20:00
5:50 PM,71.6,59.0,64,29.89,6.2,West,16.1,-,N/A,,Partly Cloudy,260,2013-06-03 14:50:00
6:20 PM,71.6,57.2,60,29.89,6.2,West,16.1,-,N/A,,Partly Cloudy,260,2013-06-03 15:20:00
6:50 PM,71.6,53.6,53,29.89,6.2,West,16.1,-,N/A,,Partly Cloudy,260,2013-06-03 15:50:00
7:20 PM,69.8,55.4,60,29.89,6.2,West,13.8,-,N/A,,Partly Cloudy,260,2013-06-03 16:20:00
7:50 PM,69.8,55.4,60,29.89,6.2,West,11.5,-,N/A,,Partly Cloudy,270,2013-06-03 16:50:00
8:20 PM,68.0,55.4,64,29.89,6.2,West,11.5,-,N/A,,Partly Cloudy,260,2013-06-03 17:20:00
8:50 PM,68.0,55.4,64,29.89,6.2,West,9.2,-,N/A,,Partly Cloudy,270,2013-06-03 17:50:00
9:20 PM,68.0,55.4,64,29.89,6.2,West,9.2,-,N/A,,Partly Cloudy,270,2013-06-03 18:20:00
9:50 PM,68.0,57.2,68,29.89,-9999.0,West,12.7,-,N/A,,Unknown,270,2013-06-03 18:50:00
10:20 PM,68.0,59.0,73,29.95,-9999.0,West,8.1,-,N/A,,Unknown,260,2013-06-03 19:20:00
10:50 PM,68.0,60.8,78,29.89,-9999.0,West,6.9,-,N/A,Rain,Light Rain,270,2013-06-03 19:50:00
11:20 PM,66.2,60.8,83,29.89,-9999.0,West,10.4,-,N/A,,Unknown,260,2013-06-03 20:20:00
11:50 PM,66.2,60.8,83,29.89,-9999.0,WSW,16.1,-,N/A,Rain,Light Rain,250,2013-06-03 20:50:00